www.pogodaiklimat.ru

Погода и климат >> Архив погоды >> Тонга >> Аэропорт Вавау


ПОГОДА в Аэропорту Вавау

  • Прогноз погоды в Аэропорту Вавау
  • Монитор погоды в Аэропорту Вавау

АРХИВ ПОГОДЫ в Аэропорту Вавау

Время (UTC), дата Ветер
(напр.,м/с)
 
Видим.   Явления Облачность Т
(С)
Тd
(С)
f
(%)
Тe
(С)
Тes
(С)
Комфортность P
(гПа)
Po
(гПа)
Тmin
(С)
Tmax
(С)
R
(мм)
R24
(мм)
S
(см)
12 18.06 нст 1 20 км {ливн. осадки} 9/9 240 м
[Cu Sc]
+24.1 +23.7 98 +33 +33 очень
душно
1014.2 1006.0 +26.5 3
15 18.06 нст 1 20 км 8/8 500 м
[Cu Sc]
+24.0 +23.3 96 +32 +32 очень
душно
1013.1 1004.9
18 18.06 штиль 0 20 км 4/4 500 м
[Cu hum]
+24.5 +23.8 96 +33 +33 очень
душно
1013.7 1005.5
21 18.06 В 4 20 км 6/6 270 м
[Frnb]
+26.1 +24.1 89 +36 +38 очень
душно
1015.2 1007.0
00 19.06 ЮВ 4 20 км 4/4 270 м
[Frnb]
+27.1 +23.6 81 +37 +42 очень
душно
1013.8 1005.6 +23.0 3
03 19.06 ЮВ 4 20 км 5/5 500 м
[Cu hum]
+26.9 +23.6 82 +37 +38 очень
душно
1012.4 1004.2
06 19.06 штиль 0 20 км 3/1 500 м
[Cu hum Ac trans]
+24.6 +23.6 94 +33 +33 очень
душно
1013.4 1005.2
12 19.06 ЮВ 3 20 км 6/6 270 м
[Frnb]
+23.9 +23.5 98 +32 +32 очень
душно
1013.9 1005.7 +28.0
15 19.06 штиль 0 20 км 3/3 500 м
[Cu hum]
+23.6 +23.0 96 +31 +31 очень
душно
1013.1 1004.8
18 19.06 Ю 3 20 км 5/5 240 м
[Frnb Ci fib]
+23.6 +22.7 95 +31 +31 очень
душно
1013.5 1005.2
21 19.06 ЮВ 2 20 км 6/6 270 м
[Frnb]
+25.4 +22.9 86 +34 +36 очень
душно
1014.5 1006.3
00 20.06 ЮВ 3 20 км 8/8 270 м
[Frnb]
+26.0 +23.1 84 +35 +37 очень
душно
1013.2 1005.0 +23.5
03 20.06 ЮВ 2 20 км 5/5 270 м
[Frnb]
+25.7 +22.2 81 +33 +35 очень
душно
1012.1 1003.9
06 20.06 ЮВ 2 20 км 8/8 270 м
[Cu Sc]
+24.6 +21.9 85 +32 +32 очень
душно
1012.9 1004.7
12 20.06 ЮВ 3 20 км 3/3 500 м
[Cu med, cong]
+23.7 +20.5 82 +29 +29 душно 1013.9 1005.6 +26.8
15 20.06 ЮВ 2 20 км 4/4 500 м
[Cu med, cong]
+23.0 +20.4 85 +30 +30 очень
душно
1013.1 1004.8
18 20.06 ЮВ 2 20 км слаб. дождь 9/9 210 м
[Cu Sc]
+21.5 +20.2 92 +27 +27 душно 1013.9 1005.6 5
21 20.06 ЮВ 4 20 км 4/4 480 м
[Cu Sc]
+25.2 +20.2 74 +31 +34 очень
душно
1014.8 1006.6
00 21.06 В 5 20 км 4/4 500 м
[Cu hum Ci fib]
+26.0 +19.7 68 +32 +35 очень
душно
1013.8 1005.6 +21.0 6
03 21.06 В 4 20 км 4/4 500 м
[Cu hum]
+25.0 +19.6 72 +30 +32 душно 1012.5 1004.3
06 21.06 нст 1 20 км 3/3 540 м
[Cu hum Ac trans]
+23.4 +19.4 78 +30 +30 очень
душно
1013.7 1005.4
12 21.06 штиль 0 20 км 1/1 600 м
[Cu hum]
+18.6 +17.6 94 +20 +20 1014.2 1005.8 +26.5
15 21.06 штиль 0 20 км 4/4 540 м
[Cu hum]
+21.0 +18.9 88 +25 +25 комфорт 1013.6 1005.3
18 21.06 В 3 20 км 4/4 540 м
[Cu Sc]
+22.0 +19.2 84 +27 +27 душно 1014.0 1005.7
21 21.06 В 4 20 км 3/1 500 м
[Cu hum Ac trans]
+24.4 +20.0 76 +30 +33 очень
душно
1015.2 1007.0
00 22.06 В 5 20 км 3/1 500 м
[Cu hum Ac trans]
+26.4 +19.5 66 +32 +37 очень
душно
1013.2 1005.0 +18.5
03 22.06 ЮВ 4 20 км 4/4 500 м
[Cu hum]
+25.4 +19.4 69 +31 +32 очень
душно
1012.3 1004.1
06 22.06 В 4 20 км 4/4 270 м
[Frnb]
+24.0 +18.9 73 +29 +29 душно 1013.5 1005.3
12 22.06 В 4 20 км 4/4 500 м
[Cu hum Ci fib]
+23.4 +19.9 81 +30 +30 очень
душно
1014.7 1006.4 +26.7
18 22.06 В 5 20 км 1/1 540 м
[Cu hum Ci fib]
+23.6 +18.8 74 +28 +28 душно 1015.4 1007.1
21 22.06 В 3 20 км 3/3 500 м
[Cu hum]
+25.3 +19.3 69 +30 +34 душно 1016.8 1008.6
00 23.06 В 3 20 км {ливн. осадки} 6/6 270 м
[Cu Sc]
+26.1 +20.5 71 +32 +36 очень
душно
1015.6 1007.4 +23.1 0.1
03 23.06 В 2 20 км {ливн. осадки} 8/8 270 м
[Cu Sc]
+25.0 +20.5 76 +31 +32 очень
душно
1014.8 1006.6
06 23.06 В 3 20 км {ливн. осадки} 8/8 500 м
[Cu Sc]
+24.8 +19.9 74 +30 +30 душно 1016.2 1008.0 0.1
12 23.06 В 3 20 км 3/3 600 м
[Cu hum]
+23.5 +19.8 80 +29 +29 душно 1016.8 1008.5 +26.8
15 23.06 В 2 20 км 4/4 500 м
[Cu hum]
+23.6 +20.1 81 +29 +29 душно 1015.6 1007.3
18 23.06 В 3 20 км 4/4 500 м
[Cu hum Ci fib]
+23.8 +19.5 77 +29 +29 душно 1016.6 1008.3
21 23.06 В 5 20 км 3/3 540 м
[Cu hum Ci fib]
+26.1 +20.0 69 +32 +35 очень
душно
1017.7 1009.5
00 24.06 В 5 20 км 3/3 600 м
[Cu hum Ci fib]
+27.3 +20.5 66 +34 +38 очень
душно
1016.7 1008.5 +22.9 0.1
03 24.06 В 5 20 км 4/3 540 м
[Cu hum Ci fib]
+27.0 +21.3 71 +34 +36 очень
душно
1015.5 1007.3
06 24.06 В 4 20 км в посл. час ливневой дождь 8/8 500 м
[Cu Sc]
+24.5 +21.4 83 +31 +31 очень
душно
1016.9 1008.6 1
12 24.06 штиль 0 20 км 1/1 600 м
[Cu hum Ci fib]
+21.5 +21.3 99 +27 +27 душно 1019.0 1010.6 +28.0
15 24.06 штиль 0 20 км 3/3 600 м
[Cu hum Ci fib]
+20.9 +19.5 92 +25 +25 комфорт 1017.9 1009.5
18 24.06 штиль 0 20 км 3/1 600 м
[Cu hum Ci fib]
+19.5 +18.2 92 +22 +22 комфорт 1018.3 1009.9
21 24.06 В 5 20 км 3/1 540 м
[Cu hum Ac trans Ci fib]
+26.0 +22.3 80 +34 +37 очень
душно
1018.4 1010.2
00 25.06 В 5 20 км 4/1 500 м
[Cu hum Ac trans Ci fib]
+26.1 +21.2 74 +33 +38 очень
душно
1017.7 1009.5 +18.5 1
03 25.06 В 5 20 км 4/1 500 м
[Cu hum Ac trans Ci fib]
+26.6 +21.5 74 +34 +36 очень
душно
1015.0 1006.8
06 25.06 В 4 20 км 8/1 500 м
[Cu hum Ac trans]
+24.6 +21.0 80 +31 +31 очень
душно
1016.7 1008.4

 

Местоположение метеостанции Аэропорт Вавау (Тонга): широта -18.58 долгота -173.96 высота над уровнем моря 71 м.

В архиве по умолчанию представлена погода в Аэропорту Вавау за последнюю неделю. Архивные данные за месяц целиком и за предыдущие месяцы, начиная с января 2011 года, Вы можете получить, выбрав интересующий диапазон дат из раскрывающегося списка и нажав кнопку "Ввод!".


*Определитесь, кто Вы:
робот инопланетянин человек

Внимание! Время в таблицах - всемирное. Для получения местного времени необходимо прибавить поправку, которая равна -11 ч.

Смотрите также архив погоды в соседних городах и на ближайших метеорологических станциях:

Погода на Острове Хаапай (Тонга) (139 км)
Погода в Аэропорту Матаахо (Тонга) (293 км)
Погода в Аэропорту Фуаамоту (Тонга) (321 км)
Погода на Острове Ниуафооу (Тонга) (378 км)
Погода в Ниуэ аэропорту (Кука Острова) (431 км)
Погода на Лакемба (Фиджи) (512 км)
Погода на Оно-и-Лау (Фиджи) (548 км)
Погода на Станции Togitogiga (Самоа) (557 км)
Погода на Острове Маноно (Самоа) (562 км)
Погода в Аэропорту Фалеоло (Самоа) (567 км)

Пояснения к столбцам:

Ветер - указаны скорость ветра в м/с - средняя за 10 мин, порывы в срок и между сроками (в фигурных скобках) и направление, откуда дует ветер: С - северный, СВ - северо-восточный, В - восточный, ЮВ - юго-восточный, Ю - южный, ЮЗ - юго-западный, З - западный, СЗ - северо-западный.
Видимость - горизонтальная дальность видимости в метрах или километрах. При видимости от 1 до 10 км при отсутствии осадков обычно наблюдается дымка, при ухудшении видимости до 1 км и менее - туман. В сухую погоду видимость может ухудшаться дымом, пылью или мглою.
Явления - указаны атмосферные явления, наблюдавшиеся в срок или в последний час перед сроком; фигурными скобками обозначены явления, наблюдавшиеся между сроками (за 1-3 часа до срока); квадратными скобками обозначены град или гололедные отложения с указанием их диаметра в мм.
Облачность - указаны через наклонную черту общая и нижняя облачность в баллах и высота нижней границы облаков в метрах; квадратными скобками обозначены формы облаков: Ci - перистые, Cs - перисто-слоистые, Cc - перисто-кучевые, Ac - высококучевые, As - высокослоистые, Sc - слоисто-кучевые, Ns - слоисто-дождевые, Cu - кучевые, Cb - кучево-дождевые. Подробнее классификацию облаков см. в Атласе облаков (PDF).
T - Температура воздуха - температура, измеренная на высоте 2 м над землей.
Td - Температура точки росы - температура, при понижении до которой содержащийся в воздухе водяной пар достигнет насыщения.
f - Относительная влажность воздуха - влажноcть воздуха, измеренная на высоте 2 м над землей.
Te - Эффективная температура - температура, которую ощущает одетый по сезону человек в тени. Характеристика душности погоды. При расчете учитывается влияние влажности воздуха и скорости ветра на теплоощущения человека.
Tes - Эффективная температура на солнце - температура, которую ощущает человек, с поправкой на солнечный нагрев. Характеристика знойности погоды. Зависит от высоты солнца над горизонтом, облачности и скорости ветра. Ночью, в пасмурную погоду, а также при ветре 12 м/с и более поправка равна нулю.
P - Атмосферное давление - приведенное к уровню моря атмосферное давление.
Po - Атмосферное давление - измеренное на уровне метеостанции атмосферное давление.
Tmin - Минимальная температура - минимум температуры воздуха на высоте 2 м над землей.
Tmax - Максимальная температура - максимум температуры воздуха на высоте 2 м над землей.
R - Количество осадков - Количество выпавших осадков за период времени, мм. При наведении курсора мыши на число - период времени, за который выпало указанное количество осадков.
R24 - Количество осадков - Количество выпавших осадков за 24 часа, мм.
S - Снежный покров - Высота снежного покрова, см. При наведении курсора мыши на число - состояние снежного покрова и степень покрытия местности в баллах.